Location: Taupo
(38.6830°S, 176.0830°E)
Time: 01:42:34
(UTC+13:00)

ARGOS - Pass Details

Date: 24 January 2019
Orbit: 821 x 834 km, 98.5° (Epoch: 18 February)

Event Time Altitude Azimuth Distance (km) Brightness Sun altitude
Rises 21:32:06 0° 152° (SSE) 3,388 6.4 -10.1°
Reaches altitude 10° 21:35:00 10° 137° (SE) 2,446 5.5 -10.5°
Maximum altitude 21:39:11 23° 86° (E) 1,717 4.3 -11.2°
Enters shadow 21:42:00 15° 47° (NE) 2,071 4.6 -11.6°
